This is the latest recevied weather packets stored in our database for station/object SP1BMW-13. If no packets are shown the sender has not sent any weather packets the latest 10 day(s).
| Time | Temp. | Humidity | Pressure | Rain* | Wind** | Luminosity | Snow |
|---|---|---|---|---|---|---|---|
| 1787920998 | 23.33° C | 55% | 1009.2 hPa | 0 mm | 1.34 m/s, 29° | 233 W/m² | - |
| 1787920938 | 23.33° C | 55% | 1009.1 hPa | 0 mm | 0.89 m/s, 24° | 236 W/m² | - |
| 1787920878 | 23.33° C | 55% | 1009.1 hPa | 0 mm | 1.34 m/s, 118° | 235 W/m² | - |
| 1787920818 | 23.33° C | 55% | 1009.2 hPa | 0 mm | 0.89 m/s, 125° | 229 W/m² | - |
| 1787920758 | 23.33° C | 55% | 1009.2 hPa | 0 mm | 0.89 m/s, 110° | 211 W/m² | - |
| 1787920698 | 23.33° C | 55% | 1009.3 hPa | 0 mm | 1.79 m/s, 47° | 198 W/m² | - |
| 1787920638 | 23.33° C | 55% | 1009 hPa | 0 mm | 0.89 m/s, 34° | 180 W/m² | - |
| 1787920578 | 23.33° C | 55% | 1009.1 hPa | 0 mm | 0.89 m/s, 109° | 169 W/m² | - |
| 1787920518 | 23.33° C | 54% | 1009 hPa | 0 mm | 0.89 m/s, 46° | 153 W/m² | - |
| 1787920458 | 23.33° C | 55% | 1009.3 hPa | 0 mm | 1.34 m/s, 54° | 142 W/m² | - |
| 1787920398 | 23.33° C | 55% | 1009.1 hPa | 0 mm | 0.89 m/s, 44° | 135 W/m² | - |
| 1787920338 | 23.33° C | 56% | 1009.1 hPa | 0 mm | 0.45 m/s, 305° | 132 W/m² | - |
| 1787920278 | 23.33° C | 56% | 1009.1 hPa | 0 mm | 0.45 m/s, 33° | 131 W/m² | - |
| 1787920218 | 23.33° C | 56% | 1008.9 hPa | 0 mm | 0.89 m/s, 96° | 134 W/m² | - |
| 1787920158 | 23.89° C | 55% | 1009 hPa | 0 mm | 0 m/s | 137 W/m² | - |
| 1787920098 | 23.89° C | 55% | 1009.1 hPa | 0 mm | 1.34 m/s, 30° | 140 W/m² | - |
| 1787920037 | 23.89° C | 54% | 1009.1 hPa | 0 mm | 1.79 m/s, 112° | 144 W/m² | - |
| 1787919978 | 23.89° C | 54% | 1009 hPa | 0 mm | 1.79 m/s, 33° | 147 W/m² | - |
| 1787919918 | 23.89° C | 54% | 1009.2 hPa | 0 mm | 0.89 m/s, 31° | 150 W/m² | - |
| 1787919857 | 23.89° C | 54% | 1009.1 hPa | 0 mm | 2.68 m/s, 23° | 152 W/m² | - |
| 1787919798 | 23.89° C | 55% | 1009.1 hPa | 0 mm | 0.45 m/s, 33° | 154 W/m² | - |
| 1787919738 | 23.89° C | 55% | 1008.9 hPa | 0 mm | 0.45 m/s, 217° | 154 W/m² | - |
| 1787919678 | 23.89° C | 54% | 1009.2 hPa | 0 mm | 0.89 m/s, 28° | 153 W/m² | - |
| 1787919618 | 23.89° C | 55% | 1009.3 hPa | 0 mm | 1.79 m/s, 44° | 153 W/m² | - |
| 1787919558 | 23.89° C | 54% | 1009.3 hPa | 0 mm | 0.89 m/s, 187° | 154 W/m² | - |
* Rain latest hour (hover to see other rain measurements)
** Current wind speed in m/s (hover to see current wind gust speed)